Simultaneous Nadir Overpasses (SNOs) Predictions

Prediction of SNOs between NOAA-19 and NPP Satellite Orbit:

Table of predicted SNOs for the next 14.0 days since TLE Epoch: 6/28/2019
Index Date (NOAA-19) Time (NOAA-19) Lat,Lon (NOAA-19) SZA (NOAA-19 ) Date (NPP) Time (NPP) Lat,Lon (NPP) SZA (NPP ) Distance(km) Time Diff (sec)
1 07/04/2019 23:11:05 -80.01, -27.09 120.30 07/04/2019 23:12:17 -80.03, -27.19 120.31 2.71 72
2 07/05/2019 00:02:00 80.02, 140.28 59.71 07/05/2019 00:03:02 80.02, 140.22 59.68 1.05 62
3 07/05/2019 00:53:06 -80.01, -52.65 120.29 07/05/2019 00:53:47 -80.03, -52.59 120.30 2.84 41
4 07/05/2019 01:44:01 80.01, 114.72 59.72 07/05/2019 01:44:32 80.02, 114.83 59.69 2.12 31
5 07/05/2019 02:35:06 -80.03, -77.89 120.30 07/05/2019 02:35:17 -80.03, -77.99 120.29 1.93 11
6 07/05/2019 03:26:01 80.03, 89.48 59.71 07/05/2019 03:26:02 80.02, 89.43 59.70 1.55 1
7 07/05/2019 04:17:07 -80.02,-103.45 120.29 07/05/2019 04:16:47 -80.03,-103.38 120.27 1.96 20
8 07/05/2019 05:08:02 80.03, 63.92 59.72 07/05/2019 05:07:32 80.02, 64.03 59.72 2.09 30
9 07/05/2019 05:59:07 -80.04,-128.70 120.30 07/05/2019 05:58:17 -80.04,-128.78 120.26 1.68 50
10 07/05/2019 06:50:02 80.05, 38.68 59.71 07/05/2019 06:49:02 80.03, 38.63 59.73 2.54 60




NCC Satellite Simultaneous Nadir Overpasses (SNOs) Prediction Service
